Weather History for Denton, TX

Change the Weather History Date:

Wednesday, March 20, 2013

  Actual Average Record
Temperature  
Mean Temperature 53 °F -  
Max Temperature 64 °F 64 °F 82 °F (2004)
Min Temperature 42 °F 43 °F 34 °F (2001)
Degree Days  
Heating Degree Days 12    
Growing Degree Days 3 (Base 50)    
Moisture  
Dew Point 32 °F    
Average Humidity 48    
Maximum Humidity 79    
Minimum Humidity 26    
Precipitation  
Precipitation 0.00 in - - ()
Sea Level Pressure  
Sea Level Pressure 30.19 in    
Wind  
Wind Speed 7 mph (NE)    
Max Wind Speed 12 mph    
Max Gust Speed 16 mph    
Visibility 10 miles    
Events      
Averages and records for this station are not official NWS values.
T = Trace of Precipitation, MM = Missing Value Source: NWS Daily Summary

Daily Weather History Graph

Daily Weather History Graph

Search for Another Location

Airport:

Trip Planner

Search our weather history database for the weather conditions in past years. The results will help you decide how hot, cold, wet, or windy it might be!

Date:

Astronomy

Mar. 20, 2013 Rise Set
Actual Time 7:32 AM CDT 7:40 PM CDT
Civil Twilight 7:07 AM CDT 8:05 PM CDT
Nautical Twilight 6:38 AM CDT 8:34 PM CDT
Astronomical Twilight 6:09 AM CDT 9:03 PM CDT
Moon 1:32 PM CDT (3/20) 2:56 AM CDT (3/20)
Length of Visible Light 12h 57m
Length of Day
12h 08m
First Quarter, 59% of the Moon is Illuminated
Mar 20
First Quarter
Mar 27
Full
Apr 2
Last Quarter
Apr 10
New
Apr 18
First Quarter

Hourly Weather History & Observations

Time (CDT) Temp. Windchill Dew Point Humidity Pressure Visibility Wind Dir Wind Speed Gust Speed Precip Events Conditions
12:53 AM 50.0 °F - 34.0 °F 54% 30.15 in 10.0 mi North 5.8 mph - N/A   Clear
1:53 AM 48.9 °F - 34.0 °F 56% 30.18 in 10.0 mi North 8.1 mph - N/A   Clear
2:53 AM 48.0 °F - 33.1 °F 56% 30.19 in 10.0 mi North 9.2 mph - N/A   Clear
3:53 AM 45.0 °F 42.6 °F 34.0 °F 65% 30.18 in 10.0 mi NNE 4.6 mph - N/A   Clear
4:53 AM 46.9 °F - 37.0 °F 68% 30.18 in 10.0 mi North 6.9 mph - N/A   Partly Cloudy
5:53 AM 45.0 °F 41.2 °F 37.0 °F 74% 30.22 in 10.0 mi North 6.9 mph - N/A   Clear
6:53 AM 42.1 °F 38.4 °F 36.0 °F 79% 30.25 in 10.0 mi North 5.8 mph - N/A   Clear
7:53 AM 42.1 °F 37.7 °F 35.1 °F 76% 30.28 in 10.0 mi North 6.9 mph - N/A   Clear
8:53 AM 46.0 °F 42.5 °F 37.0 °F 71% 30.31 in 10.0 mi North 6.9 mph - N/A   Clear
9:53 AM 50.0 °F - 36.0 °F 59% 30.32 in 10.0 mi North 9.2 mph - N/A   Clear
10:53 AM 55.0 °F - 36.0 °F 49% 30.32 in 10.0 mi NNE 5.8 mph - N/A   Clear
11:53 AM 59.0 °F - 36.0 °F 42% 30.31 in 10.0 mi North 4.6 mph - N/A   Clear
12:53 PM 62.1 °F - 30.0 °F 30% 30.29 in 10.0 mi NNE 11.5 mph 16.1 mph N/A   Clear
1:53 PM 62.1 °F - 28.9 °F 29% 30.26 in 10.0 mi Variable 3.5 mph - N/A   Clear
2:53 PM 64.0 °F - 30.9 °F 29% 30.21 in 10.0 mi Variable 6.9 mph - N/A   Clear
3:53 PM 64.0 °F - 28.0 °F 26% 30.17 in 10.0 mi NNE 8.1 mph - N/A   Clear
4:53 PM 63.0 °F - 27.0 °F 26% 30.15 in 10.0 mi NE 5.8 mph - N/A   Clear
5:53 PM 63.0 °F - 27.0 °F 26% 30.13 in 10.0 mi East 3.5 mph - N/A   Clear
6:53 PM 61.0 °F - 28.9 °F 30% 30.10 in 10.0 mi ESE 10.4 mph - N/A   Clear
7:53 PM 57.9 °F - 28.9 °F 33% 30.10 in 10.0 mi SE 5.8 mph - N/A   Clear
8:53 PM 57.0 °F - 28.9 °F 34% 30.08 in 10.0 mi ESE 4.6 mph - N/A   Clear
9:53 PM 55.0 °F - 28.0 °F 35% 30.06 in 10.0 mi East 5.8 mph - N/A   Clear
10:53 PM 54.0 °F - 30.0 °F 40% 30.05 in 10.0 mi ESE 6.9 mph - N/A   Clear
11:53 PM 50.0 °F - 34.0 °F 54% 30.03 in 10.0 mi SE 4.6 mph - N/A   Clear